Hauptseite
METAR-TAF:

METAR-TAF

Flughäfen :

Upshur County Regional Airport

Buckhannon, West Virginia, Vereinigte Staaten

Breite: 39-00N, Länge: 080-16W, Höhe: 498 m

Beobachtung

Neuester Wetterbericht von vor 23 Minuten, um 04:35 UTC
Wind 5 kt aus Süd
Temperatur -6°C
Luftfeuchtigkeit 86%
Luftdruck 1015 hPa
Sichtweite: 16.1 km
Leicht bewölkt in der Höhe von 3000 ft

METAR: KW22 210435Z AUTO 19005KT 10SM FEW030 M06/M08 A2996 RMK AO2

Zeit: 23:58 (04:58 UTC)


TAF: fehlend

Wetterbeobachtungen und Prognosen von mehr als 4000 Flughäfen (METAR und TAF Bericht).

Die verfügbaren Stationen werden durch gelbe und rote Markierungen auf der Karte dargestellt.

Führen Sie die Maus auf sie, um den Namen der Station zu sehen.

Darauf klicken, um die Beobachtung von Wetterbeobachtungen und Prognosen zu sehen.

Um die Karte zu ändern : klicken Sie auf den grünen Tasten mit einem schwarzen Kreuz Zum Vergrößern, auf den grünen Button mit einem Gedankenstrich zu verkleinern, oder auf die grünen Pfeile für benachbarte Karten.


METAR-TAF: